CW4611 Weather Reports


Display with metric or nautical units.
time (UTC)temp
F
wind
direction
speed
MPH
gust
MPH
rain 1hr
in
rain 24hr
in
rain mn
in
humidity
%
barometer
mb
20181212091104 19 165 1.0 3.0 0.00 0.00 0.00 55 1028.6
20181212090604 19 165 0.0 1.0 0.00 0.00 0.00 55 1028.5
20181212090105 19 165 2.0 3.0 0.00 0.00 0.00 55 1028.5
20181212084605 19 165 0.0 0.0 0.00 0.00 0.00 54 1028.4
20181212084105 19 165 0.0 0.0 0.00 0.00 0.00 53 1028.4
20181212083605 19 165 0.0 0.0 0.00 0.00 0.00 53 1028.5
20181212083104 19 165 0.0 3.0 0.00 0.00 0.00 52 1028.4
20181212081605 20 165 1.0 2.0 0.00 0.00 0.00 53 1028.5
20181212081105 20 165 3.0 5.0 0.00 0.00 0.00 52 1028.5
20181212080604 20 103 0.0 3.0 0.00 0.00 0.00 52 1028.5
20181212080104 20 14 0.0 5.0 0.00 0.00 0.00 55 1028.5
20181212074605 19 41 1.0 3.0 0.00 0.00 0.00 56 1028.7
20181212074105 19 42 0.0 3.0 0.00 0.00 0.00 56 1028.9
20181212073605 19 42 2.0 3.0 0.00 0.00 0.00 56 1028.9
20181212073104 19 42 3.0 3.0 0.00 0.00 0.00 56 1029.0
20181212071605 19 49 0.0 0.0 0.00 0.00 0.00 55 1029.4
20181212071107 19 49 0.0 0.0 0.00 0.00 0.00 54 1029.4
20181212070605 19 49 0.0 0.0 0.00 0.00 0.00 54 1029.3
20181212070106 19 49 0.0 0.0 0.00 0.00 0.00 55 1029.3
20181212064605 20 49 1.0 3.0 0.00 0.00 0.00 53 1029.6
20181212064105 20 49 0.0 3.0 0.00 0.00 0.00 52 1029.5
20181212063605 20 49 0.0 0.0 0.00 0.00 0.00 52 1029.6
20181212063104 20 49 0.0 0.0 0.00 0.00 0.00 53 1029.7
20181212061606 20 49 0.0 1.0 0.00 0.00 0.00 55 1029.9
20181212061104 20 49 1.0 3.0 0.00 0.00 0.00 54 1029.9
20181212060605 20 49 2.0 3.0 0.00 0.00 0.00 52 1030.0
20181212060105 20 50 1.0 7.0 0.00 0.00 0.00 51 1030.1
20181212054604 19 41 2.0 3.0 0.00 0.00 0.00 55 1030.2
20181212054105 19 41 0.0 2.0 0.00 0.00 0.00 55 1030.2
20181212053604 19 41 0.0 0.0 0.00 0.00 0.00 56 1030.2
20181212053104 19 41 0.0 5.0 0.00 0.00 0.00 56 1030.3
20181212051604 19 22 0.0 1.0 0.00 0.00 0.00 56 1030.7
20181212051104 19 27 2.0 5.0 0.00 0.00 0.00 55 1030.6
20181212050604 19 36 2.0 5.0 0.00 0.00 0.00 56 1030.6
20181212050104 19 36 1.0 5.0 0.00 0.00 0.00 53 1030.6
20181212044605 20 105 1.0 5.0 0.00 0.00 0.00 52 1030.8
20181212044105 21 132 1.0 10.0 0.00 0.00 0.00 51 1030.8
20181212043604 21 45 6.0 12.0 0.00 0.00 0.00 52 1030.7
20181212043105 20 60 5.0 12.0 0.00 0.00 0.00 54 1030.6
20181212041605 20 58 1.0 3.0 0.00 0.00 0.00 57 1030.6
20181212041104 20 58 3.0 7.0 0.00 0.00 0.00 57 1030.6
20181212040605 21 0 1.0 12.0 0.00 0.00 0.00 57 1030.7
20181212040105 21 44 3.0 7.0 0.00 0.00 0.00 56 1030.6
20181212034605 21 84 0.0 2.0 0.00 0.00 0.00 59 1030.8
20181212034104 21 84 6.0 14.0 0.00 0.00 0.00 59 1030.8
20181212033604 20 82 6.0 15.0 0.00 0.00 0.00 62 1030.9
20181212033104 20 98 2.0 3.0 0.00 0.00 0.00 63 1031.0
20181212031605 20 119 0.0 0.0 0.00 0.00 0.00 62 1031.2
20181212031104 21 119 1.0 3.0 0.00 0.00 0.00 62 1031.3
20181212030605 20 66 2.0 8.0 0.00 0.00 0.00 63 1031.4
20181212030105 20 78 3.0 9.0 0.00 0.00 0.00 65 1031.6
20181212024605 20 96 2.0 5.0 0.00 0.00 0.00 66 1031.7
20181212024105 21 97 0.0 0.0 0.00 0.00 0.00 65 1031.8
20181212023604 21 97 0.0 2.0 0.00 0.00 0.00 65 1031.7
20181212023104 21 97 0.0 3.0 0.00 0.00 0.00 65 1031.6
20181212021604 23 99 2.0 5.0 0.00 0.00 0.00 61 1031.6
20181212021104 24 100 5.0 10.0 0.00 0.00 0.00 61 1031.6
20181212020605 24 75 5.0 10.0 0.00 0.00 0.00 61 1031.6
20181212020105 24 40 3.0 12.0 0.00 0.00 0.00 62 1031.5
20181212014604 24 53 6.0 13.0 0.00 0.00 0.00 63 1031.4
20181212014104 24 95 6.0 12.0 0.00 0.00 0.00 64 1031.3
20181212013604 24 90 2.0 14.0 0.00 0.00 0.00 63 1031.3
20181212013104 24 72 11.0 15.0 0.00 0.00 0.00 63 1031.4
20181212011605 25 96 7.0 13.0 0.00 0.00 0.00 62 1031.6
20181212011105 25 62 6.0 12.0 0.00 0.00 0.00 63 1031.5
20181212010604 24 78 5.0 7.0 0.00 0.00 0.00 65 1031.6
20181212010104 24 120 1.0 6.0 0.00 0.00 0.00 66 1031.7
20181212004604 24 2 1.0 2.0 0.00 0.00 0.00 65 1031.8
20181212004104 25 307 1.0 3.0 0.00 0.00 0.00 66 1031.8
20181212003604 25 307 1.0 3.0 0.00 0.00 0.00 64 1031.9
20181212003104 26 278 3.0 3.0 0.00 0.00 0.00 64 1031.9
20181212001604 26 266 0.0 0.0 0.00 0.00 0.00 63 1031.6
20181212001104 27 266 0.0 0.0 0.00 0.00 0.00 63 1031.6
20181212000604 27 266 0.0 0.0 0.00 0.00 0.00 63 1031.5
20181212000105 28 266 0.0 0.0 0.00 0.00 0.00 62 1031.4
20181211234604 29 266 0.0 2.0 0.00 0.00 0.00 59 1031.3
20181211234104 29 266 1.0 5.0 0.00 0.00 0.00 59 1031.4
20181211233604 29 250 0.0 3.0 0.00 0.00 0.00 59 1031.4
20181211233104 30 250 0.0 3.0 0.00 0.00 0.00 58 1031.4
20181211231604 30 232 2.0 6.0 0.00 0.00 0.00 56 1031.4
20181211231104 31 251 2.0 5.0 0.00 0.00 0.00 56 1031.5
20181211230604 31 257 2.0 3.0 0.00 0.00 0.00 57 1031.6
20181211230104 31 200 0.0 5.0 0.00 0.00 0.00 57 1031.7
20181211224604 31 212 0.0 6.0 0.00 0.00 0.00 57 1031.8
20181211224105 31 205 2.0 5.0 0.00 0.00 0.00 57 1031.8
20181211223605 32 273 1.0 5.0 0.00 0.00 0.00 59 1031.7
20181211223105 32 256 2.0 5.0 0.00 0.00 0.00 57 1031.7
20181211221604 33 205 2.0 6.0 0.00 0.00 0.00 55 1031.5
20181211221104 33 252 3.0 6.0 0.00 0.00 0.00 54 1031.5
20181211220604 33 226 3.0 9.0 0.00 0.00 0.00 54 1031.5
20181211220107 33 169 2.0 12.0 0.00 0.00 0.00 54 1031.4
20181211214607 34 199 3.0 7.0 0.00 0.00 0.00 53 1031.4
20181211214106 34 239 3.0 7.0 0.00 0.00 0.00 51 1031.3
20181211213606 34 262 3.0 9.0 0.00 0.00 0.00 51 1031.1
20181211213107 34 218 4.0 9.0 0.00 0.00 0.00 50 1031.1
20181211211606 34 202 2.0 6.0 0.00 0.00 0.00 53 1031.2
20181211211106 34 246 3.0 7.0 0.00 0.00 0.00 54 1031.2
20181211210607 34 203 3.0 6.0 0.00 0.00 0.00 54 1031.1
20181211210107 34 205 4.0 9.0 0.00 0.00 0.00 54 1031.1
20181211204606 35 216 4.0 7.0 0.00 0.00 0.00 52 1031.0
20181211204106 35 209 4.0 7.0 0.00 0.00 0.00 52 1031.1
20181211203606 34 184 3.0 6.0 0.00 0.00 0.00 53 1031.1
20181211203107 34 196 3.0 7.0 0.00 0.00 0.00 52 1031.1
20181211201606 36 163 3.0 6.0 0.00 0.00 0.00 48 1031.2
20181211201106 36 163 2.0 5.0 0.00 0.00 0.00 47 1031.3
20181211200606 36 194 2.0 6.0 0.00 0.00 0.00 46 1031.4
20181211200107 36 282 2.0 6.0 0.00 0.00 0.00 46 1031.4
20181211194606 35 316 3.0 7.0 0.00 0.00 0.00 47 1031.6
20181211194107 36 242 2.0 3.0 0.00 0.00 0.00 47 1031.7
20181211193606 35 182 3.0 5.0 0.00 0.00 0.00 46 1031.7
20181211193106 35 250 0.0 7.0 0.00 0.00 0.00 47 1031.8
20181211191607 35 234 1.0 6.0 0.00 0.00 0.00 48 1032.1
20181211191106 35 245 3.0 5.0 0.00 0.00 0.00 47 1032.2
20181211190606 36 211 3.0 5.0 0.00 0.00 0.00 47 1032.3
20181211190108 34 173 0.0 3.0 0.00 0.00 0.00 51 1032.3
20181211184611 32 173 1.0 3.0 0.00 0.00 0.00 54 1032.8
20181211184107 33 173 2.0 3.0 0.00 0.00 0.00 52 1033.0
20181211183606 33 160 2.0 3.0 0.00 0.00 0.00 53 1033.0
20181211183107 32 157 1.0 3.0 0.00 0.00 0.00 55 1033.2
20181211181112 30 155 0.0 0.0 0.00 0.00 0.00 60 1033.5
20181211180607 29 155 0.0 2.0 0.00 0.00 0.00 61 1033.6
20181211180111 29 155 1.0 5.0 0.00 0.00 0.00 60 1033.7
20181211174611 29 129 3.0 3.0 0.00 0.00 0.00 57 1033.9
20181211174111 29 121 2.0 5.0 0.00 0.00 0.00 58 1033.8
20181211173606 28 121 2.0 5.0 0.00 0.00 0.00 58 1033.7
20181211173106 29 117 3.0 7.0 0.00 0.00 0.00 57 1033.8
20181211171606 28 91 5.0 7.0 0.00 0.00 0.00 58 1033.7
20181211171106 28 85 4.0 8.0 0.00 0.00 0.00 58 1033.6
20181211170606 28 85 2.0 6.0 0.00 0.00 0.00 58 1033.6
20181211170106 27 83 3.0 7.0 0.00 0.00 0.00 58 1033.6
20181211164607 26 68 4.0 7.0 0.00 0.00 0.00 59 1033.7
20181211164106 26 84 3.0 8.0 0.00 0.00 0.00 59 1033.6
20181211163606 26 55 1.0 3.0 0.00 0.00 0.00 59 1033.5
20181211163107 26 54 3.0 10.0 0.00 0.00 0.00 61 1033.4
20181211161606 25 64 6.0 12.0 0.00 0.00 0.00 60 1033.5
20181211161106 25 52 5.0 10.0 0.00 0.00 0.00 61 1033.4
20181211160606 25 91 3.0 7.0 0.00 0.00 0.00 60 1033.4
20181211160107 25 54 3.0 12.0 0.00 0.00 0.00 61 1033.3
20181211154606 23 55 5.0 9.0 0.00 0.00 0.00 64 1033.4
20181211154106 22 56 3.0 6.0 0.00 0.00 0.00 67 1033.4
20181211153606 23 66 4.0 12.0 0.00 0.00 0.00 64 1033.3
20181211153106 21 54 6.0 10.0 0.00 0.00 0.00 67 1033.2
20181211151607 22 59 2.0 3.0 0.00 0.00 0.00 64 1033.0
20181211151107 22 49 2.0 6.0 0.00 0.00 0.00 64 1032.9
20181211150607 22 49 4.0 9.0 0.00 0.00 0.00 64 1032.9
20181211150107 22 55 6.0 12.0 0.00 0.00 0.00 65 1032.8
20181211144606 22 50 5.0 9.0 0.00 0.00 0.00 64 1032.9
20181211144106 22 69 5.0 9.0 0.00 0.00 0.00 64 1033.1
20181211143606 22 25 5.0 9.0 0.00 0.00 0.00 64 1033.2
20181211143106 22 63 5.0 13.0 0.00 0.00 0.00 63 1033.1
20181211141606 22 61 7.0 14.0 0.00 0.00 0.00 62 1033.2
20181211141106 23 58 7.0 13.0 0.00 0.00 0.00 61 1033.4
20181211140606 23 80 7.0 13.0 0.00 0.00 0.00 62 1033.4
20181211140106 23 41 5.0 10.0 0.00 0.00 0.00 63 1033.4
20181211134607 22 36 5.0 9.0 0.00 0.00 0.00 66 1033.3
20181211134106 21 49 6.0 12.0 0.00 0.00 0.00 67 1033.3
20181211133606 20 58 3.0 7.0 0.00 0.00 0.00 67 1033.2
20181211133106 20 5 3.0 3.0 0.00 0.00 0.00 66 1033.2
20181211131606 21 8 3.0 5.0 0.00 0.00 0.00 66 1033.0
20181211131106 21 5 3.0 6.0 0.00 0.00 0.00 66 1032.9
20181211130607 21 28 2.0 5.0 0.00 0.00 0.00 65 1032.8
20181211130106 22 30 2.0 9.0 0.00 0.00 0.00 66 1032.8
20181211124606 20 44 3.0 6.0 0.00 0.00 0.00 68 1032.8
20181211124106 20 34 3.0 6.0 0.00 0.00 0.00 68 1032.7
20181211123606 20 14 3.0 3.0 0.00 0.00 0.00 68 1032.8
20181211123106 20 37 2.0 5.0 0.00 0.00 0.00 68 1032.7
20181211121605 20 315 2.0 3.0 0.00 0.00 0.00 67 1032.7
20181211121106 20 315 2.0 5.0 0.00 0.00 0.00 67 1032.6
20181211120605 21 312 2.0 3.0 0.00 0.00 0.00 67 1032.5
20181211120106 21 305 2.0 3.0 0.00 0.00 0.00 66 1032.4
20181211114606 22 304 2.0 3.0 0.00 0.00 0.00 65 1032.2
20181211114106 22 304 0.0 0.0 0.00 0.00 0.00 66 1032.2
20181211113606 22 304 0.0 3.0 0.00 0.00 0.00 66 1032.2
20181211113106 22 304 2.0 3.0 0.00 0.00 0.00 65 1032.1
20181211111606 22 304 1.0 2.0 0.00 0.00 0.00 66 1031.9
20181211111106 22 304 1.0 3.0 0.00 0.00 0.00 66 1031.9
20181211110606 22 302 0.0 0.0 0.00 0.00 0.00 66 1031.9
20181211110106 22 302 0.0 3.0 0.00 0.00 0.00 66 1031.9
20181211104606 22 302 1.0 3.0 0.00 0.00 0.00 64 1031.9
20181211104106 22 302 3.0 3.0 0.00 0.00 0.00 64 1032.0
20181211103606 22 294 1.0 3.0 0.00 0.00 0.00 63 1032.0
20181211103106 23 294 1.0 3.0 0.00 0.00 0.00 63 1032.0
20181211101606 24 267 0.0 0.0 0.00 0.00 0.00 61 1032.2
20181211101107 24 267 0.0 0.0 0.00 0.00 0.00 61 1032.2
20181211100605 24 267 0.0 0.0 0.00 0.00 0.00 61 1032.1
20181211100107 24 267 0.0 3.0 0.00 0.00 0.00 61 1031.9
20181211094606 24 267 2.0 3.0 0.00 0.00 0.00 60 1031.6
20181211094105 25 267 0.0 0.0 0.00 0.00 0.00 59 1031.5
20181211093605 25 267 1.0 3.0 0.00 0.00 0.00 59 1031.4
20181211093106 25 267 1.0 3.0 0.00 0.00 0.00 59 1031.3
20181211091606 25 267 2.0 3.0 0.00 0.00 0.00 59 1031.2